Location: Blangy-Tronville
(49.8790°N, 2.4226°E)
Time: 02:11:40
(UTC+00:00)

Meteor 1-28 Rocket - Pass Details

Date: 18 November 2025
Orbit: 434 x 442 km, 97.6° (Epoch: 04 December)

Event Time Altitude Azimuth Distance (km) Brightness Sun altitude
Rises 16:58:59 0° 11° (N) 2,460 6.3 -9.1°
Reaches altitude 10° 17:01:01 10° 9° (N) 1,584 5.4 -9.4°
Maximum altitude 17:04:24 69° 286° (WNW) 486 3.2 -9.9°
Drops below altitude 10° 17:07:45 10° 203° (SSW) 1,572 6.3 -10.4°
Sets 17:09:46 0° 201° (SSW) 2,438 7.2 -10.7°
